Regional Weather Roundup
Issued by NWS Jackson, KY

Home | Current Version | Previous Version | Graphics & Text | Print | Product List | Glossary On
Versions: 1 2 3 4 5 6 7 8 9 10 11 12 13 14 15 16 17 18 19 20 21 22 23 24 25 26 27 28 29 30 31 32 33 34 35 36 37 38 39 40 41 42 43 44 45 46 47 48 49 50
215
ASUS43 KJKL 091910
RWRJKL

EAST KENTUCKY HOURLY WEATHER ROUNDUP
NATIONAL WEATHER SERVICE JACKSON KY
200 PM EST FRI DEC 09 2016

NOTE: "FAIR" INDICATES FEW OR NO CLOUDS BELOW 12,000 FEET WITH
NO SIGNIFICANT WEATHER AND/OR OBSTRUCTIONS TO VISIBILITY.

* THESE REPORTS ARE NOT UNDER NWS QUALITY CONTROL AND MAY NOT
  REPORT WEATHER SUCH AS PRECIPITATION AND FOG.

KYZ079-080-083-085-087-088-110-112-115-119-120-092000
...EASTERN KENTUCKY...

CITY           SKY/WX    TMP DP  RH WIND       PRES   REMARKS
JACKSON        CLOUDY    24  14  65 VRB3      30.49S
LONDON         PTSUNNY   27  13  55 VRB5      30.50F WCI  22
SOMERSET*      CLOUDY    28  14  54 W6        30.54F WCI  22
MONTICELLO*    CLOUDY    27  17  66 N9        30.55F WCI  18
MIDDLESBORO*   SUNNY     31  15  50 CALM      30.49F
HARLAN APT*    MOCLDY    30  12  47 W9        30.46S WCI  22
PIKE CO APT*   FLURRIES  24  16  71 W5        30.48R WCI  18
BIG SANDY APT* CLOUDY    25  14  62 W6        30.50R WCI  18
MOREHEAD APT*  CLOUDY    23  10  58 W6G13     30.54S WCI  16
ASHLAND*       CLOUDY    27  16  63 W9        30.52S WCI  17
$$

KYZ035-036-041-042-044-050-067-078-099-092000
...CENTRAL KENTUCKY...

CITY           SKY/WX    TMP DP  RH WIND       PRES   REMARKS
MT STERLING*   CLOUDY    25  14  63 NW5       30.54F WCI  19
FLEMING/MASON* CLOUDY    24  13  63 W7        30.53F WCI  16
DANVILLE*      PTSUNNY   27  14  59 N7        30.52F WCI  19
LEXINGTON      CLOUDY    25  13  60 VRB6      30.52F WCI  18
FRANKFORT      CLOUDY    24  12  60 NW6       30.53F WCI  17
LOUISVILLE     PTSUNNY   28  11  48 VRB5      30.56F WCI  23
LEBANON*       CLOUDY    28  14  54 CALM      30.55S
GLASGOW*       MOSUNNY   32  16  52 W7        30.56S WCI  25
BOWLING GREEN  MOSUNNY   33  15  47 NW5       30.57F WCI  29
$$

KYZ091>093-OHZ055-061-077-WVZ005-015-034-035-042-092000
...SOUTHERN OHIO/WEST VIRGINIA...

CITY           SKY/WX    TMP DP  RH WIND       PRES   REMARKS
COVINGTON      CLOUDY    24  13  62 W8        30.51F WCI  15
COLUMBUS       FLURRIES  27  19  72 W13       30.45F WCI  16
DAYTON         LGT SNOW  25  16  68 W15       30.47F WCI  13
WILMINGTON     CLOUDY    25  15  66 W13       30.47F WCI  14
HUNTINGTON     CLOUDY    26  13  57 W10       30.51S WCI  16
CHARLESTON     FLURRIES  27  14  58 W10       30.47S WCI  17
PINEVILLE*       N/A     26  11  54 MISG      30.47S
BECKLEY        CLOUDY    21  11  65 NW9       30.35S WCI  11
BLUEFIELD      CLOUDY    19   9  65 VRB6      30.34R WCI  11
LOGAN CO APT*  CLOUDY    25  14  63 CALM      30.44R
$$

VAZ002-007-008-TNZ017-027-036-066-071-092000
...SOUTHWEST VIRGINIA/EAST TENNESSEE...

CITY           SKY/WX    TMP DP  RH WIND       PRES   REMARKS
WISE*          FLURRIES  23  16  74 NW5       30.38F WCI  17
ABINGDON*      MOSUNNY   29  13  51 N6        30.39F WCI  23
BRISTOL        MOSUNNY   30  13  49 NW7       30.44S WCI  23
MORRISTOWN*    CLEAR     30  14  51 NW9       30.46S WCI  22
SEVIERVILLE*   CLEAR     32  14  47 SW3       30.48F
KNOXVILLE      MOSUNNY   32  14  47 VRB3      30.49F
OAK RIDGE      SUNNY     35  14  42 E6        30.50F WCI  30
CROSSVILLE     SUNNY     30  14  51 N8        30.45F WCI  22
NASHVILLE      MOSUNNY   35  15  44 W8        30.56F WCI  29
$$

...KEY TO REMARKS...
VSB - VISIBILITY IN MILES
WCI - WIND CHILL INDEX
HX  - HEAT INDEX

$$




USA.gov is the U.S. government's official web portal to all federal, state and local government web resources and services.